TimeCST,TemperatureF,Dew PointF,Humidity,Sea Level PressureIn,VisibilityMPH,Wind Direction,Wind SpeedMPH,Gust SpeedMPH,PrecipitationIn,Events,Conditions,WindDirDegrees,DateUTC
12:15 AM,26.6,15.8,64,29.85,10.0,SSW,10.4,-,N/A,,Clear,200,2013-01-16 06:15:00
12:35 AM,26.6,15.8,64,29.83,10.0,South,12.7,18.4,N/A,,Clear,190,2013-01-16 06:35:00
12:54 AM,26.6,15.8,64,29.82,10.0,South,12.7,-,N/A,,Clear,180,2013-01-16 06:54:00
1:15 AM,26.6,15.8,64,29.81,10.0,SSW,9.2,17.3,N/A,,Clear,200,2013-01-16 07:15:00
1:35 AM,26.6,15.8,64,29.80,10.0,South,12.7,-,N/A,,Scattered Clouds,190,2013-01-16 07:35:00
1:55 AM,26.6,15.8,64,29.80,10.0,SSW,11.5,-,N/A,,Mostly Cloudy,200,2013-01-16 07:55:00
2:15 AM,28.4,14.0,55,29.78,10.0,South,16.1,21.9,N/A,,Overcast,190,2013-01-16 08:15:00
2:35 AM,28.4,15.8,59,29.78,10.0,SSW,13.8,19.6,N/A,,Overcast,200,2013-01-16 08:35:00
2:55 AM,28.4,15.8,59,29.77,10.0,SSW,13.8,19.6,N/A,,Overcast,200,2013-01-16 08:55:00
3:15 AM,28.4,17.6,64,29.75,10.0,SSW,11.5,18.4,N/A,Snow,Light Snow,200,2013-01-16 09:15:00
3:35 AM,28.4,17.6,64,29.75,10.0,SSW,16.1,-,N/A,,Overcast,210,2013-01-16 09:35:00
3:55 AM,30.2,17.6,60,29.74,10.0,SSW,17.3,-,N/A,,Overcast,210,2013-01-16 09:55:00
4:14 AM,30.2,19.4,64,29.74,10.0,SW,20.7,24.2,N/A,,Overcast,220,2013-01-16 10:14:00
4:35 AM,30.2,21.2,69,29.73,10.0,SW,17.3,-,N/A,,Overcast,220,2013-01-16 10:35:00
4:55 AM,30.2,21.2,69,29.73,10.0,SW,15.0,19.6,N/A,,Overcast,220,2013-01-16 10:55:00
5:15 AM,30.2,21.2,69,29.72,10.0,SW,16.1,26.5,N/A,,Overcast,220,2013-01-16 11:15:00
6:34 AM,33.8,24.8,70,29.73,10.0,WSW,13.8,-,N/A,,Overcast,240,2013-01-16 12:34:00
6:55 AM,33.8,26.6,75,29.73,10.0,WSW,16.1,20.7,N/A,,Overcast,240,2013-01-16 12:55:00
7:15 AM,33.8,26.6,75,29.74,10.0,WSW,12.7,-,N/A,,Overcast,240,2013-01-16 13:15:00
7:35 AM,35.6,26.6,70,29.74,10.0,WSW,12.7,-,N/A,,Overcast,250,2013-01-16 13:35:00
7:55 AM,35.6,28.4,75,29.74,10.0,WSW,13.8,-,N/A,,Overcast,250,2013-01-16 13:55:00
8:15 AM,35.6,28.4,75,29.75,10.0,WSW,12.7,-,N/A,,Scattered Clouds,250,2013-01-16 14:15:00
8:35 AM,35.6,28.4,75,29.76,10.0,WSW,11.5,-,N/A,,Clear,250,2013-01-16 14:35:00
8:55 AM,37.4,28.4,70,29.78,10.0,West,15.0,-,N/A,,Clear,260,2013-01-16 14:55:00
9:14 AM,37.4,28.4,70,29.79,10.0,West,13.8,-,N/A,,Clear,260,2013-01-16 15:14:00
9:35 AM,37.4,28.4,70,29.79,10.0,WSW,11.5,-,N/A,,Clear,250,2013-01-16 15:35:00
9:55 AM,39.2,28.4,65,29.80,10.0,West,15.0,-,N/A,,Scattered Clouds,260,2013-01-16 15:55:00
10:15 AM,39.2,28.4,65,29.80,10.0,WSW,11.5,-,N/A,,Mostly Cloudy,250,2013-01-16 16:15:00
10:34 AM,39.2,28.4,65,29.80,10.0,WSW,8.1,-,N/A,,Mostly Cloudy,250,2013-01-16 16:34:00
10:55 AM,41.0,30.2,65,29.81,10.0,West,9.2,-,N/A,,Overcast,260,2013-01-16 16:55:00
11:14 AM,41.0,30.2,65,29.80,10.0,West,8.1,-,N/A,,Overcast,260,2013-01-16 17:14:00
11:35 AM,41.0,30.2,65,29.81,10.0,West,9.2,-,N/A,,Overcast,260,2013-01-16 17:35:00
11:55 AM,41.0,30.2,65,29.81,10.0,WSW,10.4,-,N/A,,Overcast,240,2013-01-16 17:55:00
12:13 PM,39.2,30.2,70,29.80,10.0,WSW,10.4,-,N/A,,Overcast,240,2013-01-16 18:13:00
12:35 PM,41.0,30.2,65,29.80,10.0,Calm,Calm,-,N/A,,Overcast,0,2013-01-16 18:35:00
12:55 PM,41.0,32.0,70,29.81,10.0,WSW,5.8,-,N/A,,Drizzle,250,2013-01-16 18:55:00
1:15 PM,39.2,32.0,75,29.81,7.0,West,10.4,-,N/A,Rain,Light Rain,260,2013-01-16 19:15:00
1:35 PM,39.2,33.8,81,29.81,7.0,West,11.5,-,N/A,Rain,Light Rain,280,2013-01-16 19:35:00
1:55 PM,39.2,33.8,81,29.82,7.0,West,10.4,-,N/A,,Drizzle,280,2013-01-16 19:55:00
2:15 PM,39.2,33.8,81,29.83,4.0,WNW,12.7,-,N/A,,Drizzle,290,2013-01-16 20:15:00
2:35 PM,37.4,33.8,87,29.84,10.0,WNW,15.0,-,N/A,,Overcast,300,2013-01-16 20:35:00
2:55 PM,37.4,32.0,81,29.87,10.0,NNW,18.4,23.0,N/A,,Overcast,330,2013-01-16 20:55:00
3:15 PM,35.6,30.2,81,29.89,10.0,NW,17.3,-,N/A,,Overcast,320,2013-01-16 21:15:00
3:35 PM,33.8,28.4,81,29.92,10.0,NW,19.6,24.2,N/A,,Overcast,320,2013-01-16 21:35:00
3:55 PM,33.8,26.6,75,29.94,10.0,NNW,18.4,24.2,N/A,,Overcast,330,2013-01-16 21:55:00
4:13 PM,33.8,26.6,75,29.96,10.0,NW,20.7,26.5,N/A,,Overcast,320,2013-01-16 22:13:00
4:35 PM,33.8,26.6,75,29.99,10.0,NW,17.3,-,N/A,,Overcast,320,2013-01-16 22:35:00
4:55 PM,32.0,24.8,75,30.01,10.0,NW,15.0,-,N/A,,Overcast,310,2013-01-16 22:55:00
5:15 PM,30.2,24.8,80,30.02,10.0,NW,20.7,-,N/A,,Overcast,310,2013-01-16 23:15:00
5:35 PM,30.2,23.0,75,30.04,10.0,NW,17.3,-,N/A,,Scattered Clouds,320,2013-01-16 23:35:00
5:55 PM,30.2,23.0,75,30.06,10.0,WNW,18.4,26.5,N/A,,Mostly Cloudy,300,2013-01-16 23:55:00
6:15 PM,28.4,21.2,74,30.07,10.0,WNW,19.6,25.3,N/A,,Overcast,300,2013-01-17 00:15:00
6:35 PM,26.6,19.4,74,30.09,10.0,NW,20.7,24.2,N/A,,Overcast,310,2013-01-17 00:35:00
6:55 PM,24.8,17.6,74,30.11,10.0,NW,19.6,26.5,N/A,,Scattered Clouds,310,2013-01-17 00:55:00
7:15 PM,24.8,15.8,69,30.13,10.0,NW,21.9,27.6,N/A,,Scattered Clouds,310,2013-01-17 01:15:00
7:35 PM,21.2,14.0,74,30.15,10.0,NW,20.7,27.6,N/A,,Clear,310,2013-01-17 01:35:00
7:55 PM,21.2,12.2,68,30.17,10.0,WNW,16.1,24.2,N/A,,Clear,300,2013-01-17 01:55:00
8:15 PM,19.4,12.2,74,30.17,10.0,WNW,12.7,-,N/A,,Clear,300,2013-01-17 02:15:00
8:35 PM,19.4,10.4,68,30.18,10.0,WNW,17.3,21.9,N/A,,Clear,300,2013-01-17 02:35:00
8:55 PM,17.6,10.4,73,30.20,10.0,WNW,15.0,-,N/A,,Clear,300,2013-01-17 02:55:00
9:15 PM,15.8,8.6,73,30.20,10.0,WNW,15.0,-,N/A,,Clear,300,2013-01-17 03:15:00
9:34 PM,15.8,6.8,68,30.20,10.0,WNW,13.8,-,N/A,,Clear,300,2013-01-17 03:34:00
9:55 PM,14.0,6.8,73,30.20,10.0,WNW,13.8,19.6,N/A,,Clear,300,2013-01-17 03:55:00
10:15 PM,14.0,6.8,73,30.21,10.0,WNW,11.5,-,N/A,,Clear,300,2013-01-17 04:15:00
10:35 PM,12.2,1.4,62,30.22,10.0,WNW,17.3,21.9,N/A,,Clear,300,2013-01-17 04:35:00
10:55 PM,12.2,1.4,62,30.24,10.0,WNW,17.3,21.9,N/A,,Clear,290,2013-01-17 04:55:00
11:15 PM,12.2,1.4,62,30.25,10.0,WNW,10.4,-,N/A,,Clear,290,2013-01-17 05:15:00
11:34 PM,10.4,-0.4,62,30.25,10.0,WNW,17.3,-,N/A,,Clear,290,2013-01-17 05:34:00
11:55 PM,10.4,-0.4,62,30.26,10.0,WNW,15.0,-,N/A,,Clear,290,2013-01-17 05:55:00